Regional Weather Roundup
Issued by NWS

Home | Current Version | Previous Version | Graphics & Text | Print | Product List | Glossary On
Versions: 1 2 3 4 5 6 7 8 9 10 11 12 13 14 15 16 17 18 19 20 21 22 23 24 25 26 27 28 29 30 31 32 33 34 35 36 37 38 39 40 41 42 43 44 45 46 47 48 49 50
000
ASUS43 KMPX 202010
RWRMN
WEATHER ROUNDUP FOR MINNESOTA
NATIONAL WEATHER SERVICE TWIN CITIES/CHANHASSEN MN
300 PM CDT SUN MAY 20 2018


NOTE: "FAIR" INDICATES FEW OR NO CLOUDS BELOW 12,000 FEET WITH NO
SIGNIFICANT WEATHER AND/OR OBSTRUCTIONS TO VISIBILITY. N/A MEANS
CURRENT SKY AND/OR WEATHER CONDITIONS ARE NOT AVAILABLE.

MNZ060>063-068>070-202100-
   Twin Cities Metro

CITY           SKY/WX    TMP DP  RH WIND       PRES   REMARKS
TWIN CITIES    FAIR      70  34  26 E10G20    30.18F
ST PAUL        FAIR      69  36  29 E12       30.18F
CRYSTAL        FAIR      70  26  19 NE12G17   30.17F
BLAINE         MOSUNNY   70  28  21 E10       30.19F
LAKEVILLE      FAIR      66  45  45 NE9       30.18F
EDEN PRAIRIE   FAIR      69  34  27 NE9       30.17F
SOUTH ST PAUL  FAIR      69  32  25 NE10G17   30.17F
LAKE ELMO      FAIR      68  36  30 NE7       30.20F
$$
MNZ001>005-007-008-013>017-022>024-027-028-202100-
   Northwest Minnesota

CITY           SKY/WX    TMP DP  RH WIND       PRES   REMARKS
BEMIDJI        FAIR      67  32  27 SW5       30.22F
HALLOCK        FAIR      73  28  19 SW6       30.18F
ROSEAU         FAIR      72  39  30 SW6       30.20F
WARROAD        FAIR      72  37  28 SW8       30.20F
THIEF RVR FALL FAIR      70  30  22 W7        30.22F
CROOKSTON      FAIR      72  32  23 W7        30.21F
FOSSTON        FAIR      70  30  23 W5        30.23F
DETROIT LAKES  FAIR      68  32  26 SE7       30.24F
MOORHEAD       FAIR      70  32  24 N5        30.22F
PARK RAPIDS    FAIR      68  32  26 MISG      30.23F
MAHNOMEN       FAIR      66  37  33 CALM      30.23F
$$
MNZ006-009>011-018-025>026-202100-
   North Central Minnesota

CITY           SKY/WX    TMP DP  RH WIND       PRES   REMARKS
BAUDETTE       FAIR      73  31  21 SW8       30.20F
FLAG ISLAND    FAIR      57  43  58 S15       30.17F
INTL FALLS     FAIR      72  30  21 W6        30.20F
WASKISH        CLOUDY    68  34  28 W7        30.23F
BIG FORK       FAIR      72  32  23 W6        30.21F
LONGVILLE      FAIR      68  30  24 N5        30.24F
GRAND RAPIDS   FAIR      65  32  29 VRB6      30.25F
CRANE LAKE     FAIR      70  27  19 NW5       30.21F
ORR            FAIR      72  21  15 CALM      30.19F
COOK           FAIR      70  28  21 W3        30.22F
WALKER         FAIR      64  27  24 E7        30.24F
$$
MNZ012-019>021-037-202100-
   Northeast Minnesota

CITY           SKY/WX    TMP DP  RH WIND       PRES   REMARKS
DULUTH         FAIR      66  31  27 SE6       30.24F
ELY            FAIR      68  25  19 SW6       30.22F
HIBBING        FAIR      68  33  27 VRB5      30.23F
EVELETH        FAIR      67  33  27 CALM      30.24F
DULUTH HARBOR  FAIR      57  37  47 NE3       30.26F
TWO HARBORS    FAIR      70  39  32 S9        30.22F
SILVER BAY     FAIR      64  30  27 S12       30.21F
GRAND MARAIS     N/A     49  35  58 SW13      30.24F
G MARAIS ARPRT FAIR      61  27  27 S9        30.23F
$$
MNZ029>031-032-039>041-046>048-054>057-064-202100-
   West Central Minnesota

CITY           SKY/WX    TMP DP  RH WIND       PRES   REMARKS
FERGUS FALLS   FAIR      70  32  24 SE10G16   30.17F
WHEATON        SUNNY     68  21  17 NE12G17   30.21F
MORRIS         SUNNY     70  30  23 E9G16     30.18F
ALEXANDRIA     FAIR      69  31  24 NE9       30.22F
ELBOW LAKE     FAIR      67  32  27 NE3       30.21F
WADENA         FAIR      68  34  28 E6        30.22F
GLENWOOD       FAIR      70  28  21 E10       30.20F
APPLETON       SUNNY     70  18  13 NE9G20    30.17F
BENSON         SUNNY     70  27  19 E10       30.20F
ORTONVILLE     SUNNY     70  25  18 E7        30.18F
MADISON        SUNNY     73  23  15 NE17G23   30.17F
WILLMAR        FAIR      70  27  19 NE12G17   30.20F
$$
MNZ033>034-036-042>043-049>051-058-059-202100-
   Central Minnesota

CITY           SKY/WX    TMP DP  RH WIND       PRES   REMARKS
ST CLOUD       FAIR      67  24  19 E8G17     30.20F
SAUK CENTRE    FAIR      67  29  23 NE6       30.21F
PAYNESVILLE    FAIR      66  25  21 NE9G17    30.20F
AITKIN         FAIR      66  30  26 NE5       30.21F
PINE RIVER     FAIR      64  36  34 SE7       30.26F
BRAINERD       FAIR      69  30  23 VRB5      30.23F
STAPLES        FAIR      66  28  24 E7        30.22F
LONG PRAIRIE   FAIR      66  32  28 NE9       30.22F
LITTLE FALLS   FAIR      68  32  26 N5        30.22F
LITCHFIELD     FAIR      70  28  21 NE9G17    30.18F
BUFFALO        FAIR      68  26  20 NE7       30.19F
MAPLE LAKE     FAIR      70  32  24 NE8       30.20F
HUTCHINSON     FAIR      71  33  25 NE16      30.18F
$$
MNZ037-044-045-052-053-202100-
   East Central Minnesota

CITY           SKY/WX    TMP DP  RH WIND       PRES   REMARKS
PRINCETON      FAIR      70  27  19 N7        30.21F
MORA           FAIR      66  30  26 E6        30.23F
CAMBRIDGE      FAIR      72  45  37 N8        30.20F
RUSH CITY      FAIR      68  32  26 E5        30.21F
MOOSE LAKE     FAIR      68  34  28 N7        30.21F
HINCKLEY       FAIR      68  32  26 CALM      30.21F
CLOQUET        FAIR      66  25  20 CALM      30.24F
MCGREGOR       FAIR      68  32  26 E10       30.23F
$$
MNZ071>073-080-081-089-090-097-098-202100-
   Southwest Minnesota

CITY           SKY/WX    TMP DP  RH WIND       PRES   REMARKS
MONTEVIDEO     SUNNY     73  25  16 SE14G20   30.17F
GRANITE FALLS  MOSUNNY   73  27  18 NE14G22   30.17F
CANBY          PTSUNNY   69  25  19 NE10G16   30.17F
MARSHALL       CLOUDY    68  36  30 E7G17     30.15F
REDWOOD FALLS  SUNNY     71  43  36 E12       30.15F
OLIVIA         SUNNY     70  28  21 NE10      30.15F
PIPESTONE      CLOUDY    63  43  48 E7        30.15F
WINDOM         CLOUDY    63  39  42 E9G16     30.16F
WORTHINGTON      N/A     56  45  66 E12       30.17F
JACKSON        CLOUDY    61  46  59 E10G16    30.16F
TRACY          CLOUDY    66  50  54 E8        30.15F
SLAYTON        CLOUDY    62  44  53 E12       30.18F
$$
MNZ065>067-074>077-082>085-091>093-202100-
   South Central Minnesota

CITY           SKY/WX    TMP DP  RH WIND       PRES   REMARKS
MANKATO        PTSUNNY   63  49  60 E13       30.17F
NEW ULM        PTSUNNY   64  46  52 SE12      30.16F
ST JAMES       CLOUDY    63  46  55 NE9       30.17F
FAIRMONT       CLOUDY    63  49  60 NE14      30.16F
GLENCOE        FAIR      69  38  32 NE12G17   30.17F
FARIBAULT      FAIR      66  48  52 CALM      30.18F
OWATONNA       FAIR      64  52  63 E8        30.18F
WASECA         PTSUNNY   63  50  63 E12G17    30.19F
ALBERT LEA     CLOUDY    55  46  71 E13       30.18F
$$
MNZ078>079-086>088-094>096-202100-
   Southeast Minnesota

CITY           SKY/WX    TMP DP  RH WIND       PRES   REMARKS
ROCHESTER      CLOUDY    55  49  80 NE8       30.21F
RED WING       FAIR      70  34  26 NE7       30.16F
STANTON        FAIR      67  45  45 SE9       30.17F
DODGE CENTER   FAIR      59  45  58 E10       30.19F
WINONA         CLOUDY    59  46  63 SE9       30.19S
AUSTIN         CLOUDY    54  48  82 E8        30.19F
PRESTON        CLOUDY    49  47  92 E7        30.21F FOG
$$
ABBREVIATIONS USED IN REMARKS
   TC - TEMPERATURES IN CELSIUS
  WCI - WIND CHILL INDEX
   HX - HEAT INDEX
  VSB - VISIBILITY
$$



USA.gov is the U.S. government's official web portal to all federal, state and local government web resources and services.